Time,TemperatureF,DewpointF,PressureIn,WindDirection,WindDirectionDegrees,WindSpeedMPH,WindSpeedGustMPH,Humidity,HourlyPrecipIn,Conditions,Clouds,dailyrainin,SoftwareType,DateUTC
2013-01-21 00:03:00,52.0,34.5,29.96,ENE,68,0.0,0.2,51,0.00,,,0.00,WUHU216HW,2013-01-21 08:03:00,
2013-01-21 00:08:00,51.8,34.3,29.96,NE,45,0.4,0.4,51,0.00,,,0.00,WUHU216HW,2013-01-21 08:08:00,
2013-01-21 00:13:00,51.8,34.3,29.96,NNE,23,0.7,0.7,51,0.00,,,0.00,WUHU216HW,2013-01-21 08:13:00,
2013-01-21 00:18:00,51.8,34.3,29.95,East,90,0.4,0.7,51,0.00,,,0.00,WUHU216HW,2013-01-21 08:18:00,
2013-01-21 00:23:00,52.0,34.5,29.95,NNE,23,0.4,1.1,51,0.00,,,0.00,WUHU216HW,2013-01-21 08:23:00,
2013-01-21 00:28:00,51.8,34.3,29.95,NE,45,0.2,1.1,51,0.00,,,0.00,WUHU216HW,2013-01-21 08:28:00,
2013-01-21 00:33:00,51.5,33.9,29.94,NNW,338,0.4,0.4,51,0.00,,,0.00,WUHU216HW,2013-01-21 08:33:00,
2013-01-21 00:38:00,51.3,34.3,29.95,NNW,338,0.0,0.4,52,0.00,,,0.00,WUHU216HW,2013-01-21 08:38:00,
2013-01-21 00:43:00,51.1,34.1,29.95,NNW,338,0.0,0.0,52,0.00,,,0.00,WUHU216HW,2013-01-21 08:43:00,
2013-01-21 00:48:00,50.9,33.9,29.95,NNE,23,0.0,0.2,52,0.00,,,0.00,WUHU216HW,2013-01-21 08:48:00,
2013-01-21 00:53:00,50.8,33.8,29.95,SE,135,0.2,0.9,52,0.00,,,0.00,WUHU216HW,2013-01-21 08:53:00,
2013-01-21 00:58:00,50.4,33.5,29.95,SE,135,0.0,0.9,52,0.00,,,0.00,WUHU216HW,2013-01-21 08:58:00,
2013-01-21 01:03:00,50.6,34.0,29.95,NNE,23,1.1,1.6,53,0.00,,,0.00,WUHU216HW,2013-01-21 09:03:00,
2013-01-21 01:08:00,50.8,34.2,29.94,NNE,23,0.2,1.6,53,0.00,,,0.00,WUHU216HW,2013-01-21 09:08:00,
2013-01-21 01:13:00,50.8,33.8,29.94,NNE,23,0.0,0.4,52,0.00,,,0.00,WUHU216HW,2013-01-21 09:13:00,
2013-01-21 01:18:00,50.8,33.8,29.94,NNE,23,0.0,0.4,52,0.00,,,0.00,WUHU216HW,2013-01-21 09:18:00,
2013-01-21 01:23:00,50.8,33.8,29.94,NNE,23,0.2,0.4,52,0.00,,,0.00,WUHU216HW,2013-01-21 09:23:00,
2013-01-21 01:28:00,50.8,33.8,29.94,ENE,68,0.7,0.7,52,0.00,,,0.00,WUHU216HW,2013-01-21 09:28:00,
2013-01-21 01:33:00,50.8,34.7,29.94,ENE,68,2.7,2.7,54,0.00,,,0.00,WUHU216HW,2013-01-21 09:33:00,
2013-01-21 01:38:00,50.2,34.7,29.94,East,90,2.7,3.4,55,0.00,,,0.00,WUHU216HW,2013-01-21 09:38:00,
2013-01-21 01:43:00,50.0,34.0,29.94,ENE,68,0.4,3.4,54,0.00,,,0.00,WUHU216HW,2013-01-21 09:43:00,
2013-01-21 01:48:00,49.9,33.8,29.94,NE,45,2.7,4.3,54,0.00,,,0.00,WUHU216HW,2013-01-21 09:48:00,
2013-01-21 01:53:00,49.7,33.7,29.94,ENE,68,0.7,4.3,54,0.00,,,0.00,WUHU216HW,2013-01-21 09:53:00,
2013-01-21 01:58:00,49.7,33.7,29.93,East,90,0.9,2.0,54,0.00,,,0.00,WUHU216HW,2013-01-21 09:58:00,
2013-01-21 02:03:00,49.3,33.8,29.93,East,90,1.6,2.9,55,0.00,,,0.00,WUHU216HW,2013-01-21 10:03:00,
2013-01-21 02:08:00,49.3,34.2,29.93,East,90,3.1,3.1,56,0.00,,,0.00,WUHU216HW,2013-01-21 10:08:00,
2013-01-21 02:13:00,49.7,34.6,29.93,ENE,68,2.9,3.4,56,0.00,,,0.00,WUHU216HW,2013-01-21 10:13:00,
2013-01-21 02:18:00,50.0,34.5,29.93,ENE,68,1.8,3.4,55,0.00,,,0.00,WUHU216HW,2013-01-21 10:18:00,
2013-01-21 02:23:00,50.0,34.5,29.93,East,90,2.5,3.1,55,0.00,,,0.00,WUHU216HW,2013-01-21 10:23:00,
2013-01-21 02:28:00,50.0,34.0,29.93,East,90,1.1,2.9,54,0.00,,,0.00,WUHU216HW,2013-01-21 10:28:00,
2013-01-21 02:33:00,50.0,34.0,29.92,East,90,2.5,2.9,54,0.00,,,0.00,WUHU216HW,2013-01-21 10:33:00,
2013-01-21 02:38:00,49.7,33.7,29.92,ESE,113,1.1,2.5,54,0.00,,,0.00,WUHU216HW,2013-01-21 10:38:00,
2013-01-21 02:43:00,49.1,33.7,29.92,ESE,113,2.9,2.9,55,0.00,,,0.00,WUHU216HW,2013-01-21 10:43:00,
2013-01-21 02:48:00,48.4,33.8,29.92,East,90,4.0,4.0,57,0.00,,,0.00,WUHU216HW,2013-01-21 10:48:00,
2013-01-21 02:53:00,48.8,33.3,29.93,East,90,5.6,5.6,55,0.00,,,0.00,WUHU216HW,2013-01-21 10:53:00,
2013-01-21 02:58:00,48.6,33.1,29.92,ESE,113,4.3,5.6,55,0.00,,,0.00,WUHU216HW,2013-01-21 10:58:00,
2013-01-21 03:03:00,48.6,32.1,29.92,East,90,6.0,6.0,53,0.00,,,0.00,WUHU216HW,2013-01-21 11:03:00,
2013-01-21 03:08:00,48.6,31.2,29.92,East,90,6.3,6.9,51,0.00,,,0.00,WUHU216HW,2013-01-21 11:08:00,
2013-01-21 03:13:00,48.6,30.8,29.92,ESE,113,6.0,6.9,50,0.00,,,0.00,WUHU216HW,2013-01-21 11:13:00,
2013-01-21 03:18:00,48.6,30.8,29.92,ESE,113,3.8,6.9,50,0.00,,,0.00,WUHU216HW,2013-01-21 11:18:00,
2013-01-21 03:23:00,48.6,31.2,29.92,ESE,113,5.4,6.5,51,0.00,,,0.00,WUHU216HW,2013-01-21 11:23:00,
2013-01-21 03:28:00,48.6,30.8,29.92,ESE,113,4.9,6.5,50,0.00,,,0.00,WUHU216HW,2013-01-21 11:28:00,
2013-01-21 03:33:00,48.6,30.8,29.92,ESE,113,3.8,6.3,50,0.00,,,0.00,WUHU216HW,2013-01-21 11:33:00,
2013-01-21 03:38:00,48.6,30.3,29.91,East,90,3.4,3.8,49,0.00,,,0.00,WUHU216HW,2013-01-21 11:38:00,
2013-01-21 03:43:00,48.2,29.9,29.91,East,90,4.3,4.5,49,0.00,,,0.00,WUHU216HW,2013-01-21 11:43:00,
2013-01-21 03:48:00,48.2,29.9,29.91,East,90,2.5,4.5,49,0.00,,,0.00,WUHU216HW,2013-01-21 11:48:00,
2013-01-21 03:53:00,48.4,29.5,29.91,East,90,4.7,4.7,48,0.00,,,0.00,WUHU216HW,2013-01-21 11:53:00,
2013-01-21 03:58:00,48.8,29.4,29.91,NE,45,4.0,4.7,47,0.00,,,0.00,WUHU216HW,2013-01-21 11:58:00,
2013-01-21 04:03:00,49.0,29.5,29.91,ENE,68,4.9,4.9,47,0.00,,,0.00,WUHU216HW,2013-01-21 12:03:00,
2013-01-21 04:08:00,49.0,29.0,29.91,East,90,3.4,4.9,46,0.00,,,0.00,WUHU216HW,2013-01-21 12:08:00,
2013-01-21 04:13:00,49.1,29.2,29.91,East,90,1.8,4.0,46,0.00,,,0.00,WUHU216HW,2013-01-21 12:13:00,
2013-01-21 04:18:00,49.1,29.2,29.91,ENE,68,2.2,3.8,46,0.00,,,0.00,WUHU216HW,2013-01-21 12:18:00,
2013-01-21 04:23:00,49.3,28.7,29.90,East,90,3.4,3.8,45,0.00,,,0.00,WUHU216HW,2013-01-21 12:23:00,
2013-01-21 04:28:00,49.3,28.7,29.90,East,90,1.8,4.0,45,0.00,,,0.00,WUHU216HW,2013-01-21 12:28:00,
2013-01-21 04:33:00,49.5,28.4,29.90,East,90,5.4,5.4,44,0.00,,,0.00,WUHU216HW,2013-01-21 12:33:00,
2013-01-21 04:38:00,49.7,29.1,29.90,ENE,68,1.1,5.4,45,0.00,,,0.00,WUHU216HW,2013-01-21 12:38:00,
2013-01-21 04:43:00,49.5,28.9,29.90,East,90,0.0,3.8,45,0.00,,,0.00,WUHU216HW,2013-01-21 12:43:00,
2013-01-21 04:48:00,49.3,29.4,29.90,NNE,23,0.4,3.8,46,0.00,,,0.00,WUHU216HW,2013-01-21 12:48:00,
2013-01-21 04:53:00,49.1,29.2,29.90,NNE,23,0.2,0.4,46,0.00,,,0.00,WUHU216HW,2013-01-21 12:53:00,
2013-01-21 04:58:00,48.8,28.8,29.90,NNW,338,0.2,0.2,46,0.00,,,0.00,WUHU216HW,2013-01-21 12:58:00,
2013-01-21 05:03:00,48.8,29.4,29.90,NNW,338,0.4,0.4,47,0.00,,,0.00,WUHU216HW,2013-01-21 13:03:00,
2013-01-21 05:08:00,48.8,29.9,29.90,ESE,113,0.9,1.1,48,0.00,,,0.00,WUHU216HW,2013-01-21 13:08:00,
2013-01-21 05:13:00,48.6,29.7,29.90,SE,135,1.1,1.1,48,0.00,,,0.00,WUHU216HW,2013-01-21 13:13:00,
2013-01-21 05:18:00,48.2,30.4,29.90,ESE,113,2.5,2.5,50,0.00,,,0.00,WUHU216HW,2013-01-21 13:18:00,
2013-01-21 05:23:00,47.9,29.5,29.90,ESE,113,4.0,4.0,49,0.00,,,0.00,WUHU216HW,2013-01-21 13:23:00,
2013-01-21 05:28:00,47.9,28.4,29.90,ESE,113,3.4,4.7,47,0.00,,,0.00,WUHU216HW,2013-01-21 13:28:00,
2013-01-21 05:33:00,47.9,29.0,29.90,East,90,3.4,4.7,48,0.00,,,0.00,WUHU216HW,2013-01-21 13:33:00,
2013-01-21 05:38:00,47.5,28.7,29.90,ESE,113,4.0,4.0,48,0.00,,,0.00,WUHU216HW,2013-01-21 13:38:00,
2013-01-21 05:43:00,46.8,29.2,29.90,East,90,4.0,6.9,50,0.00,,,0.00,WUHU216HW,2013-01-21 13:43:00,
2013-01-21 05:48:00,46.3,28.6,29.90,East,90,5.4,7.2,50,0.00,,,0.00,WUHU216HW,2013-01-21 13:48:00,
2013-01-21 05:53:00,45.9,28.8,29.90,East,90,4.7,7.2,51,0.00,,,0.00,WUHU216HW,2013-01-21 13:53:00,
2013-01-21 05:58:00,46.1,28.9,29.90,ESE,113,4.7,6.0,51,0.00,,,0.00,WUHU216HW,2013-01-21 13:58:00,
2013-01-21 06:03:00,46.1,28.9,29.90,East,90,3.8,7.4,51,0.00,,,0.00,WUHU216HW,2013-01-21 14:03:00,
2013-01-21 06:08:00,46.1,28.4,29.89,East,90,5.4,7.4,50,0.00,,,0.00,WUHU216HW,2013-01-21 14:08:00,
2013-01-21 06:13:00,45.9,28.4,29.90,ESE,113,4.7,5.4,50,0.00,,,0.00,WUHU216HW,2013-01-21 14:13:00,
2013-01-21 06:18:00,45.7,28.2,29.90,ESE,113,3.4,5.4,50,0.00,,,0.00,WUHU216HW,2013-01-21 14:18:00,
2013-01-21 06:23:00,45.7,28.2,29.90,East,90,4.0,5.4,50,0.00,,,0.00,WUHU216HW,2013-01-21 14:23:00,
2013-01-21 06:29:00,45.9,27.8,29.90,ENE,68,2.2,4.5,49,0.00,,,0.00,WUHU216HW,2013-01-21 14:29:00,
2013-01-21 06:33:00,46.3,27.5,29.90,ENE,68,2.2,4.5,48,0.00,,,0.00,WUHU216HW,2013-01-21 14:33:00,
2013-01-21 06:38:00,46.6,27.9,29.90,ENE,68,3.1,3.6,48,0.00,,,0.00,WUHU216HW,2013-01-21 14:38:00,
2013-01-21 06:43:00,47.0,27.6,29.90,ENE,68,2.9,3.1,47,0.00,,,0.00,WUHU216HW,2013-01-21 14:43:00,
2013-01-21 06:48:00,47.3,27.5,29.90,ENE,68,2.2,3.6,46,0.00,,,0.00,WUHU216HW,2013-01-21 14:48:00,
2013-01-21 06:53:00,47.5,27.1,29.90,ENE,68,3.8,4.3,45,0.00,,,0.00,WUHU216HW,2013-01-21 14:53:00,
2013-01-21 06:58:00,47.9,26.8,29.90,ENE,68,5.4,5.4,44,0.00,,,0.00,WUHU216HW,2013-01-21 14:58:00,
2013-01-21 07:04:00,48.2,27.2,29.91,ENE,68,4.0,5.4,44,0.00,,,0.00,WUHU216HW,2013-01-21 15:04:00,
2013-01-21 07:08:00,48.6,27.6,29.91,NE,45,2.5,4.5,44,0.00,,,0.00,WUHU216HW,2013-01-21 15:08:00,
2013-01-21 07:13:00,48.8,27.7,29.91,ENE,68,2.7,4.5,44,0.00,,,0.00,WUHU216HW,2013-01-21 15:13:00,
2013-01-21 07:18:00,48.6,27.6,29.91,East,90,2.2,4.7,44,0.00,,,0.00,WUHU216HW,2013-01-21 15:18:00,
2013-01-21 07:24:00,48.4,27.4,29.91,ENE,68,3.6,4.7,44,0.00,,,0.00,WUHU216HW,2013-01-21 15:24:00,
2013-01-21 07:29:00,48.2,27.7,29.91,ENE,68,0.4,4.3,45,0.00,,,0.00,WUHU216HW,2013-01-21 15:29:00,
2013-01-21 07:34:00,49.3,30.4,29.91,ENE,68,0.0,4.3,48,0.00,,,0.00,WUHU216HW,2013-01-21 15:34:00,
2013-01-21 07:39:00,50.8,31.2,29.91,NNE,23,0.9,1.1,47,0.00,,,0.00,WUHU216HW,2013-01-21 15:39:00,
2013-01-21 07:44:00,52.0,32.3,29.91,SSE,158,0.4,1.1,47,0.00,,,0.00,WUHU216HW,2013-01-21 15:44:00,
2013-01-21 07:49:00,53.6,33.8,29.92,WNW,293,0.4,1.1,47,0.00,,,0.00,WUHU216HW,2013-01-21 15:49:00,
2013-01-21 07:54:00,54.5,34.6,29.92,SSE,158,1.3,1.3,47,0.00,,,0.00,WUHU216HW,2013-01-21 15:54:00,
2013-01-21 07:59:00,55.1,33.9,29.92,SE,135,1.6,2.5,45,0.00,,,0.00,WUHU216HW,2013-01-21 15:59:00,
2013-01-21 08:04:00,55.1,34.6,29.92,South,180,0.7,2.5,46,0.00,,,0.00,WUHU216HW,2013-01-21 16:04:00,
2013-01-21 08:09:00,55.4,34.3,29.92,SSE,158,0.9,1.3,45,0.00,,,0.00,WUHU216HW,2013-01-21 16:09:00,
2013-01-21 08:14:00,54.7,33.1,29.92,SE,135,2.0,2.0,44,0.00,,,0.00,WUHU216HW,2013-01-21 16:14:00,
2013-01-21 08:19:00,53.6,32.1,29.92,ESE,113,1.6,2.2,44,0.00,,,0.00,WUHU216HW,2013-01-21 16:19:00,
2013-01-21 08:24:00,52.0,29.5,29.92,ESE,113,1.8,2.9,42,0.00,,,0.00,WUHU216HW,2013-01-21 16:24:00,
2013-01-21 08:29:00,51.1,29.3,29.93,East,90,2.2,3.4,43,0.00,,,0.00,WUHU216HW,2013-01-21 16:29:00,
2013-01-21 08:34:00,50.8,30.1,29.93,East,90,1.8,3.4,45,0.00,,,0.00,WUHU216HW,2013-01-21 16:34:00,
2013-01-21 08:39:00,50.6,30.5,29.94,East,90,2.5,4.0,46,0.00,,,0.00,WUHU216HW,2013-01-21 16:39:00,
2013-01-21 08:44:00,50.8,30.6,29.94,ESE,113,2.9,4.0,46,0.00,,,0.00,WUHU216HW,2013-01-21 16:44:00,
2013-01-21 08:49:00,50.9,31.3,29.94,SE,135,2.2,4.0,47,0.00,,,0.00,WUHU216HW,2013-01-21 16:49:00,
2013-01-21 08:54:00,50.9,31.3,29.94,SE,135,3.1,4.0,47,0.00,,,0.00,WUHU216HW,2013-01-21 16:54:00,
2013-01-21 08:59:00,51.3,31.7,29.94,SE,135,3.4,3.8,47,0.00,,,0.00,WUHU216HW,2013-01-21 16:59:00,
2013-01-21 09:04:00,51.8,32.1,29.95,SSE,158,6.5,6.5,47,0.00,,,0.00,WUHU216HW,2013-01-21 17:04:00,
2013-01-21 09:09:00,52.2,32.0,29.95,SE,135,5.8,7.2,46,0.00,,,0.00,WUHU216HW,2013-01-21 17:09:00,
2013-01-21 09:14:00,52.4,32.1,29.95,ESE,113,3.4,7.2,46,0.00,,,0.00,WUHU216HW,2013-01-21 17:14:00,
2013-01-21 09:19:00,52.7,32.4,29.95,ESE,113,6.3,7.4,46,0.00,,,0.00,WUHU216HW,2013-01-21 17:19:00,
2013-01-21 09:24:00,52.9,32.6,29.95,East,90,4.9,7.4,46,0.00,,,0.00,WUHU216HW,2013-01-21 17:24:00,
2013-01-21 09:29:00,53.1,32.8,29.95,East,90,7.6,7.6,46,0.00,,,0.00,WUHU216HW,2013-01-21 17:29:00,
2013-01-21 09:34:00,53.3,33.0,29.96,SSE,158,6.0,7.6,46,0.00,,,0.00,WUHU216HW,2013-01-21 17:34:00,
2013-01-21 09:39:00,53.5,33.0,29.96,ESE,113,5.4,8.1,46,0.00,,,0.00,WUHU216HW,2013-01-21 17:39:00,
2013-01-21 09:44:00,53.6,33.8,29.97,ESE,113,6.9,8.9,47,0.00,,,0.00,WUHU216HW,2013-01-21 17:44:00,
2013-01-21 09:49:00,53.8,33.4,29.96,ESE,113,9.6,9.6,46,0.00,,,0.00,WUHU216HW,2013-01-21 17:49:00,
2013-01-21 09:54:00,54.2,32.6,29.96,ESE,113,7.6,9.6,44,0.00,,,0.00,WUHU216HW,2013-01-21 17:54:00,
2013-01-21 09:59:00,54.9,33.2,29.97,ESE,113,6.3,7.8,44,0.00,,,0.00,WUHU216HW,2013-01-21 17:59:00,
2013-01-21 10:04:00,55.8,33.5,29.97,East,90,8.1,8.1,43,0.00,,,0.00,WUHU216HW,2013-01-21 18:04:00,
2013-01-21 10:09:00,56.3,32.9,29.97,ESE,113,9.2,9.8,41,0.00,,,0.00,WUHU216HW,2013-01-21 18:09:00,
2013-01-21 10:14:00,57.2,32.4,29.97,East,90,9.8,9.8,39,0.00,,,0.00,WUHU216HW,2013-01-21 18:14:00,
2013-01-21 10:19:00,57.6,30.6,29.97,ESE,113,11.2,15.0,36,0.00,,,0.00,WUHU216HW,2013-01-21 18:19:00,
2013-01-21 10:24:00,58.0,31.0,29.97,ESE,113,8.3,15.0,36,0.00,,,0.00,WUHU216HW,2013-01-21 18:24:00,
2013-01-21 10:29:00,58.3,29.9,29.97,East,90,11.0,12.8,34,0.00,,,0.00,WUHU216HW,2013-01-21 18:29:00,
2013-01-21 10:34:00,59.0,29.8,29.97,ESE,113,8.9,12.8,33,0.00,,,0.00,WUHU216HW,2013-01-21 18:34:00,
2013-01-21 10:39:00,59.8,29.7,29.97,SE,135,8.1,12.1,32,0.00,,,0.00,WUHU216HW,2013-01-21 18:39:00,
2013-01-21 10:44:00,60.7,30.4,29.97,East,90,5.6,10.7,32,0.00,,,0.00,WUHU216HW,2013-01-21 18:44:00,
2013-01-21 10:49:00,61.6,31.2,29.97,ESE,113,6.3,10.3,32,0.00,,,0.00,WUHU216HW,2013-01-21 18:49:00,
2013-01-21 10:54:00,62.6,32.9,29.97,ESE,113,5.1,9.8,33,0.00,,,0.00,WUHU216HW,2013-01-21 18:54:00,
2013-01-21 10:59:00,63.0,31.2,29.97,East,90,9.2,9.4,30,0.00,,,0.00,WUHU216HW,2013-01-21 18:59:00,
2013-01-21 11:04:00,63.2,32.0,29.96,East,90,10.1,10.1,31,0.00,,,0.00,WUHU216HW,2013-01-21 19:04:00,
2013-01-21 11:09:00,63.2,32.0,29.96,SE,135,6.3,12.1,31,0.00,,,0.00,WUHU216HW,2013-01-21 19:09:00,
2013-01-21 11:14:00,63.4,32.1,29.96,East,90,7.6,12.1,31,0.00,,,0.00,WUHU216HW,2013-01-21 19:14:00,
2013-01-21 11:19:00,63.7,33.2,29.96,ESE,113,8.1,9.4,32,0.00,,,0.00,WUHU216HW,2013-01-21 19:19:00,
2013-01-21 11:24:00,63.9,32.7,29.96,SE,135,7.6,9.4,31,0.00,,,0.00,WUHU216HW,2013-01-21 19:24:00,
2013-01-21 11:29:00,64.3,32.2,29.95,East,90,6.9,9.6,30,0.00,,,0.00,WUHU216HW,2013-01-21 19:29:00,
2013-01-21 11:34:00,64.6,33.3,29.95,SE,135,7.4,8.5,31,0.00,,,0.00,WUHU216HW,2013-01-21 19:34:00,
2013-01-21 11:39:00,65.0,33.6,29.95,SE,135,8.5,9.8,31,0.00,,,0.00,WUHU216HW,2013-01-21 19:39:00,
2013-01-21 11:44:00,65.3,34.7,29.95,SE,135,7.2,9.8,32,0.00,,,0.00,WUHU216HW,2013-01-21 19:44:00,
2013-01-21 11:49:00,65.5,34.1,29.95,ESE,113,6.3,8.5,31,0.00,,,0.00,WUHU216HW,2013-01-21 19:49:00,
2013-01-21 11:54:00,65.7,35.7,29.94,SE,135,4.0,8.5,33,0.00,,,0.00,WUHU216HW,2013-01-21 19:54:00,
2013-01-21 11:59:00,66.1,36.7,29.94,East,90,5.1,7.8,34,0.00,,,0.00,WUHU216HW,2013-01-21 19:59:00,
2013-01-21 12:04:00,66.6,37.2,29.93,East,90,4.9,7.4,34,0.00,,,0.00,WUHU216HW,2013-01-21 20:04:00,
2013-01-21 12:09:00,66.8,36.6,29.93,ESE,113,5.4,6.3,33,0.00,,,0.00,WUHU216HW,2013-01-21 20:09:00,
2013-01-21 12:14:00,66.8,34.5,29.93,ENE,68,5.4,10.3,30,0.00,,,0.00,WUHU216HW,2013-01-21 20:14:00,
2013-01-21 12:19:00,66.6,35.7,29.93,East,90,6.5,10.3,32,0.00,,,0.00,WUHU216HW,2013-01-21 20:19:00,
2013-01-21 12:24:00,66.6,35.7,29.92,SE,135,6.0,8.5,32,0.00,,,0.00,WUHU216HW,2013-01-21 20:24:00,
2013-01-21 12:29:00,66.8,35.9,29.93,SE,135,6.3,8.5,32,0.00,,,0.00,WUHU216HW,2013-01-21 20:29:00,
2013-01-21 12:34:00,67.3,37.1,29.92,SE,135,8.1,8.5,33,0.00,,,0.00,WUHU216HW,2013-01-21 20:34:00,
2013-01-21 12:39:00,67.3,37.1,29.92,ESE,113,4.0,8.1,33,0.00,,,0.00,WUHU216HW,2013-01-21 20:39:00,
2013-01-21 12:44:00,67.7,37.4,29.92,East,90,4.0,6.3,33,0.00,,,0.00,WUHU216HW,2013-01-21 20:44:00,
2013-01-21 12:49:00,68.2,38.6,29.92,SE,135,5.1,5.8,34,0.00,,,0.00,WUHU216HW,2013-01-21 20:49:00,
2013-01-21 12:54:00,68.8,37.6,29.92,ESE,113,5.1,5.8,32,0.00,,,0.00,WUHU216HW,2013-01-21 20:54:00,
2013-01-21 12:59:00,68.8,36.1,29.91,ESE,113,5.6,7.4,30,0.00,,,0.00,WUHU216HW,2013-01-21 20:59:00,
2013-01-21 13:04:00,68.8,35.1,29.91,East,90,6.3,7.4,29,0.00,,,0.00,WUHU216HW,2013-01-21 21:04:00,
2013-01-21 13:09:00,68.8,36.1,29.92,East,90,6.3,6.3,30,0.00,,,0.00,WUHU216HW,2013-01-21 21:09:00,
2013-01-21 13:14:00,68.9,35.3,29.91,East,90,5.4,6.7,29,0.00,,,0.00,WUHU216HW,2013-01-21 21:14:00,
2013-01-21 13:19:00,69.3,36.6,29.91,East,90,5.1,6.9,30,0.00,,,0.00,WUHU216HW,2013-01-21 21:19:00,
2013-01-21 13:24:00,69.5,34.7,29.90,ENE,68,6.7,7.4,28,0.00,,,0.00,WUHU216HW,2013-01-21 21:24:00,
2013-01-21 13:29:00,69.8,36.1,29.90,SE,135,3.4,7.4,29,0.00,,,0.00,WUHU216HW,2013-01-21 21:29:00,
2013-01-21 13:34:00,70.2,36.4,29.90,East,90,4.7,6.3,29,0.00,,,0.00,WUHU216HW,2013-01-21 21:34:00,
2013-01-21 13:39:00,70.6,35.7,29.90,ESE,113,6.3,6.3,28,0.00,,,0.00,WUHU216HW,2013-01-21 21:39:00,
2013-01-21 13:44:00,70.7,36.9,29.90,ESE,113,4.5,6.3,29,0.00,,,0.00,WUHU216HW,2013-01-21 21:44:00,
2013-01-21 13:49:00,71.1,36.2,29.90,SSE,158,5.4,6.7,28,0.00,,,0.00,WUHU216HW,2013-01-21 21:49:00,
2013-01-21 13:54:00,71.6,36.6,29.90,SE,135,3.4,6.7,28,0.00,,,0.00,WUHU216HW,2013-01-21 21:54:00,
2013-01-21 13:59:00,71.8,36.8,29.90,East,90,3.4,5.6,28,0.00,,,0.00,WUHU216HW,2013-01-21 21:59:00,
2013-01-21 14:04:00,72.0,33.8,29.89,ESE,113,4.5,5.6,25,0.00,,,0.00,WUHU216HW,2013-01-21 22:04:00,
2013-01-21 14:09:00,72.4,35.2,29.89,SE,135,4.9,6.3,26,0.00,,,0.00,WUHU216HW,2013-01-21 22:09:00,
2013-01-21 14:14:00,72.7,34.5,29.89,SE,135,5.1,6.9,25,0.00,,,0.00,WUHU216HW,2013-01-21 22:14:00,
2013-01-21 14:19:00,72.7,33.5,29.89,East,90,3.4,6.9,24,0.00,,,0.00,WUHU216HW,2013-01-21 22:19:00,
2013-01-21 14:24:00,72.9,35.6,29.89,SSE,158,3.8,5.1,26,0.00,,,0.00,WUHU216HW,2013-01-21 22:24:00,
2013-01-21 14:29:00,73.1,33.8,29.90,SSE,158,4.7,6.5,24,0.00,,,0.00,WUHU216HW,2013-01-21 22:29:00,
2013-01-21 14:34:00,73.4,35.1,29.90,SSE,158,6.3,6.5,25,0.00,,,0.00,WUHU216HW,2013-01-21 22:34:00,
2013-01-21 14:39:00,73.4,34.1,29.89,SSE,158,4.7,6.9,24,0.00,,,0.00,WUHU216HW,2013-01-21 22:39:00,
2013-01-21 14:44:00,73.4,34.1,29.89,East,90,3.8,6.9,24,0.00,,,0.00,WUHU216HW,2013-01-21 22:44:00,
2013-01-21 14:49:00,73.6,34.2,29.89,ESE,113,4.7,5.8,24,0.00,,,0.00,WUHU216HW,2013-01-21 22:49:00,
2013-01-21 14:54:00,73.4,34.1,29.89,ESE,113,2.7,4.7,24,0.00,,,0.00,WUHU216HW,2013-01-21 22:54:00,
2013-01-21 14:59:00,73.6,33.2,29.89,ESE,113,4.9,4.9,23,0.00,,,0.00,WUHU216HW,2013-01-21 22:59:00,
2013-01-21 15:04:00,73.6,33.2,29.89,ENE,68,4.7,5.1,23,0.00,,,0.00,WUHU216HW,2013-01-21 23:04:00,
2013-01-21 15:09:00,73.6,35.3,29.88,ESE,113,2.2,5.1,25,0.00,,,0.00,WUHU216HW,2013-01-21 23:09:00,
2013-01-21 15:14:00,73.8,34.4,29.89,East,90,3.1,3.4,24,0.00,,,0.00,WUHU216HW,2013-01-21 23:14:00,
2013-01-21 15:19:00,74.0,35.6,29.88,NE,45,2.9,3.6,25,0.00,,,0.00,WUHU216HW,2013-01-21 23:19:00,
2013-01-21 15:24:00,74.0,36.5,29.88,North,0,0.4,3.6,26,0.00,,,0.00,WUHU216HW,2013-01-21 23:24:00,
2013-01-21 15:29:00,74.3,37.9,29.88,NNE,23,0.0,2.2,27,0.00,,,0.00,WUHU216HW,2013-01-21 23:29:00,
2013-01-21 15:34:00,74.3,36.9,29.88,NE,45,0.9,2.5,26,0.00,,,0.00,WUHU216HW,2013-01-21 23:34:00,
2013-01-21 15:39:00,74.5,39.1,29.88,East,90,0.2,2.5,28,0.00,,,0.00,WUHU216HW,2013-01-21 23:39:00,
2013-01-21 15:44:00,74.5,39.1,29.88,NE,45,0.7,2.2,28,0.00,,,0.00,WUHU216HW,2013-01-21 23:44:00,
2013-01-21 15:49:00,74.5,40.1,29.87,NW,315,0.2,2.2,29,0.00,,,0.00,WUHU216HW,2013-01-21 23:49:00,
2013-01-21 15:54:00,74.7,41.3,29.87,NNW,338,0.7,1.1,30,0.00,,,0.00,WUHU216HW,2013-01-21 23:54:00,
2013-01-21 15:59:00,74.5,40.1,29.87,NNE,23,0.7,1.3,29,0.00,,,0.00,WUHU216HW,2013-01-21 23:59:00,
2013-01-21 16:04:00,74.3,40.0,29.87,NNE,23,0.4,1.6,29,0.00,,,0.00,WUHU216HW,2013-01-22 00:04:00,
2013-01-21 16:09:00,74.0,39.6,29.87,North,0,0.4,1.6,29,0.00,,,0.00,WUHU216HW,2013-01-22 00:09:00,
2013-01-21 16:14:00,73.8,40.5,29.86,ENE,68,0.4,1.1,30,0.00,,,0.00,WUHU216HW,2013-01-22 00:14:00,
2013-01-21 16:19:00,73.3,40.0,29.86,NE,45,1.1,1.6,30,0.00,,,0.00,WUHU216HW,2013-01-22 00:19:00,
2013-01-21 16:24:00,72.9,39.7,29.86,North,0,0.4,1.8,30,0.00,,,0.00,WUHU216HW,2013-01-22 00:24:00,
2013-01-21 16:29:00,72.7,40.3,29.86,East,90,1.1,1.8,31,0.00,,,0.00,WUHU216HW,2013-01-22 00:29:00,
2013-01-21 16:34:00,72.4,40.1,29.86,NE,45,0.2,1.1,31,0.00,,,0.00,WUHU216HW,2013-01-22 00:34:00,
2013-01-21 16:39:00,72.0,40.5,29.86,NE,45,0.4,1.1,32,0.00,,,0.00,WUHU216HW,2013-01-22 00:39:00,
2013-01-21 16:44:00,71.6,41.0,29.86,North,0,0.4,2.7,33,0.00,,,0.00,WUHU216HW,2013-01-22 00:44:00,
2013-01-21 16:49:00,71.3,40.6,29.86,NNE,23,0.7,2.7,33,0.00,,,0.00,WUHU216HW,2013-01-22 00:49:00,
2013-01-21 16:54:00,70.9,41.1,29.86,NE,45,0.4,1.6,34,0.00,,,0.00,WUHU216HW,2013-01-22 00:54:00,
2013-01-21 16:59:00,70.4,40.5,29.86,NNE,23,0.7,0.7,34,0.00,,,0.00,WUHU216HW,2013-01-22 00:59:00,
2013-01-21 17:04:00,69.8,40.8,29.86,ENE,68,0.7,1.6,35,0.00,,,0.00,WUHU216HW,2013-01-22 01:04:00,
2013-01-21 17:09:00,69.5,41.2,29.86,NNE,23,0.2,1.6,36,0.00,,,0.00,WUHU216HW,2013-01-22 01:09:00,
2013-01-21 17:14:00,68.9,41.4,29.87,NE,45,1.1,1.3,37,0.00,,,0.00,WUHU216HW,2013-01-22 01:14:00,
2013-01-21 17:19:00,68.6,41.9,29.87,NNE,23,0.4,1.1,38,0.00,,,0.00,WUHU216HW,2013-01-22 01:19:00,
2013-01-21 17:24:00,68.2,41.5,29.87,NNE,23,1.6,1.6,38,0.00,,,0.00,WUHU216HW,2013-01-22 01:24:00,
2013-01-21 17:29:00,67.9,41.2,29.86,North,0,0.7,1.6,38,0.00,,,0.00,WUHU216HW,2013-01-22 01:29:00,
2013-01-21 17:34:00,67.3,41.5,29.86,NNE,23,2.5,2.5,39,0.00,,,0.00,WUHU216HW,2013-01-22 01:34:00,
2013-01-21 17:39:00,67.0,39.7,29.87,ENE,68,1.1,2.5,37,0.00,,,0.00,WUHU216HW,2013-01-22 01:39:00,
2013-01-21 17:44:00,66.2,39.1,29.87,ENE,68,0.4,1.8,37,0.00,,,0.00,WUHU216HW,2013-01-22 01:44:00,
2013-01-21 17:49:00,65.7,38.6,29.87,NNE,23,0.4,2.5,37,0.00,,,0.00,WUHU216HW,2013-01-22 01:49:00,
2013-01-21 17:54:00,65.2,38.1,29.87,ENE,68,0.4,2.5,37,0.00,,,0.00,WUHU216HW,2013-01-22 01:54:00,
2013-01-21 17:59:00,64.8,37.1,29.87,East,90,0.4,1.1,36,0.00,,,0.00,WUHU216HW,2013-01-22 01:59:00,
2013-01-21 18:04:00,64.4,36.7,29.87,East,90,1.1,1.6,36,0.00,,,0.00,WUHU216HW,2013-01-22 02:04:00,
2013-01-21 18:09:00,64.1,35.6,29.87,NNE,23,0.7,1.6,35,0.00,,,0.00,WUHU216HW,2013-01-22 02:09:00,
2013-01-21 18:14:00,63.9,34.8,29.87,NNW,338,0.4,3.8,34,0.00,,,0.00,WUHU216HW,2013-01-22 02:14:00,
2013-01-21 18:19:00,63.7,35.4,29.87,NNE,23,0.9,3.8,35,0.00,,,0.00,WUHU216HW,2013-01-22 02:19:00,
2013-01-21 18:24:00,63.5,35.9,29.87,North,0,1.8,2.0,36,0.00,,,0.00,WUHU216HW,2013-01-22 02:24:00,
2013-01-21 18:29:00,63.4,35.7,29.87,NNE,23,1.8,2.5,36,0.00,,,0.00,WUHU216HW,2013-01-22 02:29:00,
2013-01-21 18:34:00,63.0,35.5,29.87,West,270,0.7,2.5,36,0.00,,,0.00,WUHU216HW,2013-01-22 02:34:00,
2013-01-21 18:39:00,62.8,35.3,29.87,NNE,23,0.4,2.0,36,0.00,,,0.00,WUHU216HW,2013-01-22 02:39:00,
2013-01-21 18:44:00,62.6,35.8,29.87,NNE,23,0.7,2.0,37,0.00,,,0.00,WUHU216HW,2013-01-22 02:44:00,
2013-01-21 18:49:00,62.3,35.5,29.87,WSW,248,0.2,1.3,37,0.00,,,0.00,WUHU216HW,2013-01-22 02:49:00,
2013-01-21 18:54:00,62.1,35.4,29.88,NE,45,0.2,1.3,37,0.00,,,0.00,WUHU216HW,2013-01-22 02:54:00,
2013-01-21 18:59:00,61.7,35.7,29.88,NNE,23,0.4,2.0,38,0.00,,,0.00,WUHU216HW,2013-01-22 02:59:00,
2013-01-21 19:04:00,61.4,35.4,29.88,East,90,1.1,2.0,38,0.00,,,0.00,WUHU216HW,2013-01-22 03:04:00,
2013-01-21 19:09:00,61.2,35.3,29.88,North,0,0.4,1.6,38,0.00,,,0.00,WUHU216HW,2013-01-22 03:09:00,
2013-01-21 19:14:00,61.0,35.8,29.88,North,0,1.1,1.8,39,0.00,,,0.00,WUHU216HW,2013-01-22 03:14:00,
2013-01-21 19:19:00,60.8,35.6,29.89,NW,315,2.0,2.0,39,0.00,,,0.00,WUHU216HW,2013-01-22 03:19:00,
2013-01-21 19:24:00,60.7,36.2,29.89,North,0,1.1,2.0,40,0.00,,,0.00,WUHU216HW,2013-01-22 03:24:00,
2013-01-21 19:29:00,60.5,36.0,29.89,North,0,0.7,2.5,40,0.00,,,0.00,WUHU216HW,2013-01-22 03:29:00,
2013-01-21 19:34:00,60.5,36.0,29.89,NNE,23,1.8,2.5,40,0.00,,,0.00,WUHU216HW,2013-01-22 03:34:00,
2013-01-21 19:39:00,60.3,37.0,29.89,NNE,23,2.2,2.2,42,0.00,,,0.00,WUHU216HW,2013-01-22 03:39:00,
2013-01-21 19:44:00,60.1,37.4,29.90,East,90,2.2,2.5,43,0.00,,,0.00,WUHU216HW,2013-01-22 03:44:00,
2013-01-21 19:49:00,60.1,39.2,29.90,ENE,68,4.7,5.4,46,0.00,,,0.00,WUHU216HW,2013-01-22 03:49:00,
2013-01-21 19:54:00,59.9,37.9,29.90,NE,45,0.2,5.4,44,0.00,,,0.00,WUHU216HW,2013-01-22 03:54:00,
2013-01-21 19:59:00,59.8,38.9,29.90,NE,45,2.5,3.1,46,0.00,,,0.00,WUHU216HW,2013-01-22 03:59:00,
2013-01-21 20:04:00,59.8,37.7,29.90,NNE,23,0.4,3.1,44,0.00,,,0.00,WUHU216HW,2013-01-22 04:04:00,
2013-01-21 20:09:00,59.6,38.1,29.90,WNW,293,0.9,1.1,45,0.00,,,0.00,WUHU216HW,2013-01-22 04:09:00,
2013-01-21 20:14:00,59.4,38.0,29.91,NNW,338,0.2,1.1,45,0.00,,,0.00,WUHU216HW,2013-01-22 04:14:00,
2013-01-21 20:19:00,59.2,37.2,29.91,NE,45,0.2,1.8,44,0.00,,,0.00,WUHU216HW,2013-01-22 04:19:00,
2013-01-21 20:24:00,59.0,37.1,29.91,NNW,338,0.0,1.8,44,0.00,,,0.00,WUHU216HW,2013-01-22 04:24:00,
2013-01-21 20:29:00,58.9,36.9,29.91,North,0,0.4,0.9,44,0.00,,,0.00,WUHU216HW,2013-01-22 04:29:00,
2013-01-21 20:34:00,58.7,36.7,29.91,NE,45,0.0,0.4,44,0.00,,,0.00,WUHU216HW,2013-01-22 04:34:00,
2013-01-21 20:39:00,58.5,36.5,29.91,North,0,0.9,0.9,44,0.00,,,0.00,WUHU216HW,2013-01-22 04:39:00,
2013-01-21 20:44:00,58.3,36.4,29.91,NNE,23,0.4,1.6,44,0.00,,,0.00,WUHU216HW,2013-01-22 04:44:00,
2013-01-21 20:49:00,58.3,36.4,29.91,WNW,293,0.0,1.6,44,0.00,,,0.00,WUHU216HW,2013-01-22 04:49:00,
2013-01-21 20:54:00,58.0,35.5,29.92,NE,45,0.2,0.4,43,0.00,,,0.00,WUHU216HW,2013-01-22 04:54:00,
2013-01-21 20:59:00,58.0,35.5,29.92,East,90,0.2,0.4,43,0.00,,,0.00,WUHU216HW,2013-01-22 04:59:00,
2013-01-21 21:00:00,58.0,35.5,29.92,East,90,0.2,0.4,43,0.00,,,0.00,WUHU216HW,2013-01-22 05:00:00,
2013-01-21 21:01:00,58.0,35.5,29.92,East,90,0.2,0.4,43,0.00,,,0.00,WUHU216HW,2013-01-22 05:01:00,
2013-01-21 21:02:00,58.0,35.5,29.92,ENE,68,0.0,0.4,43,0.00,,,0.00,WUHU216HW,2013-01-22 05:02:00,
2013-01-21 21:07:00,57.8,35.4,29.92,North,0,0.2,0.9,43,0.00,,,0.00,WUHU216HW,2013-01-22 05:07:00,
2013-01-21 21:12:00,57.8,35.9,29.92,East,90,1.8,2.5,44,0.00,,,0.00,WUHU216HW,2013-01-22 05:12:00,
2013-01-21 21:17:00,57.6,35.7,29.92,SE,135,2.7,3.4,44,0.00,,,0.00,WUHU216HW,2013-01-22 05:17:00,
2013-01-21 21:22:00,56.9,35.6,29.93,ESE,113,0.4,3.4,45,0.00,,,0.00,WUHU216HW,2013-01-22 05:22:00,
2013-01-21 21:27:00,56.5,35.9,29.93,ESE,113,0.7,1.8,46,0.00,,,0.00,WUHU216HW,2013-01-22 05:27:00,
2013-01-21 21:32:00,56.0,36.5,29.93,East,90,1.8,1.8,48,0.00,,,0.00,WUHU216HW,2013-01-22 05:32:00,
2013-01-21 21:37:00,55.8,36.4,29.93,ESE,113,2.2,2.2,48,0.00,,,0.00,WUHU216HW,2013-01-22 05:37:00,
2013-01-21 21:42:00,55.4,36.0,29.93,East,90,1.6,2.2,48,0.00,,,0.00,WUHU216HW,2013-01-22 05:42:00,
2013-01-21 21:47:00,55.4,35.4,29.93,ENE,68,0.9,2.5,47,0.00,,,0.00,WUHU216HW,2013-01-22 05:47:00,
2013-01-21 21:52:00,55.4,35.4,29.92,ENE,68,0.2,2.5,47,0.00,,,0.00,WUHU216HW,2013-01-22 05:52:00,
2013-01-21 21:57:00,55.4,35.4,29.93,ESE,113,0.7,0.7,47,0.00,,,0.00,WUHU216HW,2013-01-22 05:57:00,
2013-01-21 22:02:00,55.3,35.3,29.92,ESE,113,0.0,0.7,47,0.00,,,0.00,WUHU216HW,2013-01-22 06:02:00,
2013-01-21 22:07:00,55.3,34.7,29.92,East,90,0.0,0.4,46,0.00,,,0.00,WUHU216HW,2013-01-22 06:07:00,
2013-01-21 22:12:00,55.3,35.3,29.92,ENE,68,1.8,2.0,47,0.00,,,0.00,WUHU216HW,2013-01-22 06:12:00,
2013-01-21 22:17:00,55.4,35.4,29.92,ENE,68,2.0,2.0,47,0.00,,,0.00,WUHU216HW,2013-01-22 06:17:00,
2013-01-21 22:22:00,55.6,35.6,29.92,East,90,2.5,3.1,47,0.00,,,0.00,WUHU216HW,2013-01-22 06:22:00,
2013-01-21 22:27:00,55.6,35.6,29.92,ENE,68,3.4,3.4,47,0.00,,,0.00,WUHU216HW,2013-01-22 06:27:00,
2013-01-21 22:32:00,55.6,35.6,29.92,NE,45,1.1,3.4,47,0.00,,,0.00,WUHU216HW,2013-01-22 06:32:00,
2013-01-21 22:37:00,55.4,36.0,29.92,ENE,68,2.7,3.4,48,0.00,,,0.00,WUHU216HW,2013-01-22 06:37:00,
2013-01-21 22:42:00,55.4,36.0,29.92,ENE,68,1.6,2.7,48,0.00,,,0.00,WUHU216HW,2013-01-22 06:42:00,
2013-01-21 22:47:00,55.6,36.2,29.92,ENE,68,3.1,3.1,48,0.00,,,0.00,WUHU216HW,2013-01-22 06:47:00,
2013-01-21 22:52:00,56.0,35.4,29.92,ENE,68,4.0,5.8,46,0.00,,,0.00,WUHU216HW,2013-01-22 06:52:00,
2013-01-21 22:57:00,56.5,34.7,29.92,East,90,4.5,6.3,44,0.00,,,0.00,WUHU216HW,2013-01-22 06:57:00,
2013-01-21 23:02:00,56.9,35.1,29.92,NE,45,5.1,6.3,44,0.00,,,0.00,WUHU216HW,2013-01-22 07:02:00,
2013-01-21 23:07:00,57.2,34.8,29.92,ESE,113,4.7,6.3,43,0.00,,,0.00,WUHU216HW,2013-01-22 07:07:00,
2013-01-21 23:12:00,57.2,34.3,29.92,East,90,2.5,6.3,42,0.00,,,0.00,WUHU216HW,2013-01-22 07:12:00,
2013-01-21 23:17:00,56.7,34.4,29.92,ESE,113,6.7,6.7,43,0.00,,,0.00,WUHU216HW,2013-01-22 07:17:00,
2013-01-21 23:22:00,56.5,34.7,29.92,East,90,4.7,6.7,44,0.00,,,0.00,WUHU216HW,2013-01-22 07:22:00,
2013-01-21 23:27:00,56.3,34.6,29.92,ESE,113,4.7,6.0,44,0.00,,,0.00,WUHU216HW,2013-01-22 07:27:00,
2013-01-21 23:32:00,56.3,34.0,29.92,East,90,5.1,7.8,43,0.00,,,0.00,WUHU216HW,2013-01-22 07:32:00,
2013-01-21 23:37:00,56.3,34.0,29.92,East,90,6.0,7.8,43,0.00,,,0.00,WUHU216HW,2013-01-22 07:37:00,
2013-01-21 23:42:00,56.2,33.8,29.91,East,90,4.7,7.2,43,0.00,,,0.00,WUHU216HW,2013-01-22 07:42:00,
2013-01-21 23:47:00,55.8,33.5,29.91,East,90,5.6,7.2,43,0.00,,,0.00,WUHU216HW,2013-01-22 07:47:00,
2013-01-21 23:52:00,55.8,33.5,29.91,East,90,5.4,6.9,43,0.00,,,0.00,WUHU216HW,2013-01-22 07:52:00,
2013-01-21 23:57:00,56.2,33.8,29.91,East,90,5.6,6.9,43,0.00,,,0.00,WUHU216HW,2013-01-22 07:57:00,